Regional Weather Roundup
Issued by NWS Newport/Morehead, NC

Current Version | Previous Version | Graphics & Text | Print | Product List | Glossary Off
Versions: 1 2 3 4 5 6 7 8 9 10 11 12 13 14 15 16 17 18 19 20 21 22 23 24 25 26 27 28 29 30 31 32 33 34 35 36 37 38 39 40 41 42 43 44 45 46 47 48 49 50

000
ASUS42 KMHX 010425
RWRMHX
WEATHER ROUNDUP FOR EASTERN NORTH CAROLINA
NATIONAL WEATHER SERVICE NEWPORT/MOREHEAD CITY NC
1200 AM EDT TUE SEP 01 2015

NOTE: "FAIR" INDICATES FEW OR NO CLOUDS BELOW 12,000 FEET
WITH NO SIGNIFICANT WEATHER AND/OR OBSTRUCTIONS TO VISIBILITY

NCZ015>017-031-032-045>047-102-103-010500-
NORTH COAST

CITY           SKY/WX    TMP DP  RH WIND       PRES   REMARKS
EDENTON        CLOUDY    72  71  96 CALM      30.07S
ELIZABETH CITY CLOUDY    75  73  93 NE3       30.08S
KITTY HAWK     CLOUDY    74  71  91 CALM      30.06S FOG
MANTEO         PTCLDY    72  71  99 CALM      30.07S

$$

NCZ045>047-081-094-103-104-010500-
CENTRAL COAST

CITY           SKY/WX    TMP DP  RH WIND       PRES   REMARKS
FRISCO         MOCLDY    79  75  87 S9        30.06F
SWANQUARTER    NOT AVBL

$$

NCZ095-097-098-100-101-010500-
SOUTHERN COAST

CITY           SKY/WX    TMP DP  RH WIND       PRES   REMARKS
BEAUFORT       LGT RAIN  77  76  96 S3        30.05S FOG
CEDAR ISLAND   NOT AVBL
JACKSONVILLE   MOCLDY    75  73  93 NW5       30.04F
PINEY ISLAND   CLEAR    N/A N/A N/A CALM      30.05S
WILMINGTON     CLOUDY    75  74  96 W6        30.05S


$$

NCZ011>013-027>030-043-044-078>080-089-090>093-098-010500-
COASTAL PLAIN

CITY           SKY/WX    TMP DP  RH WIND       PRES   REMARKS
AHOSKIE        CLOUDY    71  70  98 CALM      30.08S FOG
CLINTON        CLEAR     73  73 100 CALM      30.07S
ELIZABETHTOWN  PTCLDY    75  74  99 CALM      30.07S
GOLDSBORO      CLOUDY    75  74  97 CALM      30.05S
GREENVILLE     PTCLDY    73  73 100 CALM      30.08S
HAVELOCK       MOCLDY    76  74  93 CALM      30.06S
KENANSVILLE      N/A     74  73  97 CALM      30.07F
KINSTON        CLOUDY    75  74  98 CALM      30.07S
NEW BERN       MOCLDY    74  72  93 CALM      30.07R VSB 3/4
RICHLANDS      CLOUDY    73  68  83 CALM      30.05F VSB 1
ROCKY MOUNT    MOCLDY    73  72  96 CALM      30.07F FOG
WASHINGTON     PTCLDY    73  72  97 CALM      30.06S
WHITEVILLE     CLOUDY    74  73  96 CALM      30.07S FOG

$$

AMZ130-135-150-152-154-156-158-170-250-252-270-ANZ085-086-088-633-658-670-010500-
MARINE OBSERVATIONS

STATION/POSITION TIME  TEMP    WIND        PRES    WAVE   SWELL
                       AIR SEA DIR/SP/G            HT/PER HT/PER
                 (UTC) (F)     (DEG/KT/KT) (MB)    (FT/S) (FT/S)
CHESAPEAKE LIGHT 0400   76     170/  9/ 10 1018.9
64 E VA BEACH    0350   76 78  220/  2/  4 1018.1    3/ 9   3/ 9
DUCK             0400   77 78   80/  4/  5   N/A
2 E DUCK         0311      78                N/A     2/ 9
OREGON INLET     0400   76 80  130/  3/  4   N/A
13E OREGON INLT  0400      79                N/A     2/10
HATTERAS CG      0400   80 80  170/ 10/ 13   N/A
DIAMOND BUOY     0350   81 83  180/ 12/ 14 1018.0    4/ 8   3/ 8
CAPE LOOKOUT     0400   78     210/  8/ 11 1017.3
BEAUFORT LAB     0400   78 79  180/  7/ 12   N/A
30 SE NEW RVR IN 0308   80 81  210/ 10/ 14 1017.5
30 SE NEW RVR IN 0325      81                N/A     4/ 7
27 SE WRIGHTSVLE 0400   76 81  250/  8/ 12   N/A
5 SE WRIGHTSVLE  0308   79 82  240/  6/ 10 1017.2
225 S CAPE HAT   0350   84 84  210/ 12/ 14 1019.4    4/ 7   3/ 7
41 SE CHARLESTON 0350   81 83  240/  6/  8 1018.4    3/ 6   3/ 6

$$


USA.gov is the U.S. government's official web portal to all federal, state and local government web resources and services.